FREGAT DEB, 46101

Orbit data source: Space-Track

FREGAT DEB, 46101 is space debris in LEO originally from a launch on Mon, 18 Jul 2011 UTC launched from the Tyuratam Missile And Space Complex (TTMTR). Debris objects in space refer to the collection of defunct objects orbiting the Earth. Examples of debris include non-operational satellites, rocket bodies, and fragments generated from explosions, collisions, or faulty payload assembly.

Loading next visibility...
Identifier
46101, 2011-037JL
Orbit
LEO
Country
Flag of CISCIS
Related business
Manufacturer
Lavochkin
Mission
Spacecraft
Bus & Motor
Unknown
Mass
Unknown
Launch date (UTC)
2011-07-18 (15 years ago)
Launch vehicle
Unknown
Launch site
Tyuratam Missile And Space Complex (TTMTR)
Object type
Payload
Rocket body
Debris
Shape & HBR
Unknown shape, 0.1 m
Radar Cross Section
Small (<0.1 m²)

Expand to show TLE details & history
Last TLE update: 4 months ago

TLE from 4 months ago
0 FREGAT DEB
1 46101U 11037JL  26006.65502743  .00022811  00000-0  36902-1 0  9995
2 46101  51.1785 139.4301 0486694 313.7024  42.4490 13.09452431107710
Epoch: 2026-01-06T15:43Z
TLE epoch observation values (Epoch: 2026-01-06T15:43:14.369Z)
Latitude
-0.00002°
Longitude
157.38549°
Altitude
961.522 km
Speed
7.499 km/s
True Right ascension
09h 17m 43s
True Declination
0° 00' 00"
Sunlit
Object was in full shadow at epoch
Visualization orbit readout
Latitude
Unknown
Longitude
Unknown
Altitude
Unknown
Speed
Unknown
Apparent Right ascension
Unknown
Apparent Declination
Unknown
Sunlit
N/A
Visualization observer readout
Local Sidereal Time
20:23:26
Azimuth
Unknown
Elevation
Unknown
Doppler factor
Unknown
Orbital elements
Apogee altitude
1,595.882 km
Perigee altitude
855.724 km
Semi-major axis
7,603.94 km
Eccentricity
0.04867
Inclination
51.1785°
RAAN
139.4301°
Arg. of periapsis
313.7024°
True anomaly
46.38662°
Mean anomaly
42.449°
Eccentric anomaly
44.40005°
Mean motion
3.2733 °/min
Orbital period
109.98 mins
BSTAR
0.036902
Loading maneuver chart data...
Computing Atmospheric mass density...
Loading historical data...
Loading historical data...
Loading historical data...
Loading historical data...
Loading historical data...
Loading historical data...
Loading historical data...

Documentation

Showing up to 5 results
|